Location: Góra Kalwaria
(51.9847°N, 21.2025°E)
Time: 23:38:49
(UTC+01:00)

ISS - Visible Passes

Search period start: 23 January 2019 00:00
Search period end: 02 February 2019 00:00
Orbit: 404 x 410 km, 51.6° (Epoch: 24 January)

Date Brightness Start Highest point End Pass type
(mag) Time Alt. Az. Time Alt. Az. Time Alt. Az.
23 Jan -1.2 18:40:19 10° SSW 18:41:05 15° SSW 18:41:05 15° SSW visible
24 Jan -1.9 17:49:41 10° S 17:51:56 17° SE 17:52:03 17° SE visible
24 Jan -0.4 19:24:45 10° WSW 19:24:47 10° WSW 19:24:47 10° WSW visible
25 Jan -1.4 16:59:46 10° SSE 17:00:49 11° SE 17:01:52 10° ESE visible
25 Jan -2.3 18:33:34 10° SW 18:35:41 31° SSW 18:35:41 31° SSW visible
26 Jan -2.6 17:42:31 10° SSW 17:45:27 29° SSE 17:46:30 24° ESE visible
26 Jan -0.8 19:18:25 10° WSW 19:19:14 16° WSW 19:19:14 16° WSW visible
27 Jan -2.0 16:51:41 10° SSW 16:54:13 20° SE 16:56:45 10° E visible
27 Jan -3.4 18:27:05 10° WSW 18:30:00 57° SSW 18:30:00 57° SSW visible
28 Jan -3.3 17:35:48 10° SW 17:39:00 48° SSE 17:40:43 23° E visible
28 Jan -1.3 19:12:07 10° W 19:13:26 22° W 19:13:26 22° W visible
29 Jan -3.9 18:20:43 10° W 18:24:01 81° S 18:24:07 80° SE visible
30 Jan -3.7 17:29:19 10° WSW 17:32:36 70° SSE 17:34:47 19° E visible
30 Jan -1.7 19:05:48 10° W 19:07:30 28° W 19:07:30 28° W visible
31 Jan -3.9 18:14:21 10° W 18:17:40 87° S 18:18:09 62° E visible
01 Feb -3.8 17:22:54 10° W 17:26:12 85° S 17:28:49 15° E visible
01 Feb -2.2 18:59:25 10° W 19:01:32 35° W 19:01:32 35° W visible
